Location: Fort Worth, Tx
(32.7431°N, 97.3695°W)
Time: 05:07:37
(UTC-05:00)

Altair - Pass Details

Date: 06 October 2023
Orbit: 1501 x 1682 km, 47.2° (Epoch: 06 December)

Event Time Altitude Azimuth Distance (km) Brightness Sun altitude
Rises 10:33:02 0° 303° (WNW) 4,909 9.6 24.7°
Reaches altitude 10° 10:36:19 10° 298° (WNW) 3,932 9.2 25.3°
Maximum altitude 10:45:52 49° 228° (SW) 2,074 8.4 27.1°
Drops below altitude 10° 10:55:25 10° 157° (SSE) 3,912 10.5 28.9°
Sets 10:58:41 0° 152° (SSE) 4,882 10.9 29.5°
